View from above orbital plane
|
View from above satellite
|
Ground track
|
The orbit data is extracted from the following two-line orbital elements,
1 23404U 94077A 21103.15173241 .00000322 00000-0 19579-3 0 9992
2 23404 71.0140 250.6671 0016045 194.8377 165.2276 14.13549599361335
Epoch (UTC): | 13 April 2021 03:38:29 |
Eccentricity: | 0.0016045 |
inclination: | 71.0140° |
perigee height: | 835 km |
apogee height: | 859 km |
right ascension of ascending node: | 250.6671° |
argument of perigee: | 194.8377° |
revolutions per day: | 14.13549599 |
mean anomaly at epoch: | 165.2276° |
orbit number at epoch: | 36133 |
The dashed part of the orbit path shows where the satellite is in the earth's shadow,
|
|